OBJECT BF, 60521

Orbit data source: Space-Track

You're viewing an Uncataloged Satellite

Recently launched and/or uncataloged satellites may have evolving metadata. Metadata may include but not limited to: Owner, Maufacturer, Bus, Motor, and Mission.

OBJECT BF, 60521 is a satellite in SSO that was launched on Fri, 16 Aug 2024 UTC via an FALCON 9 launch vehicle from the Air Force Western Test Range (AFWTR). Unknown objects in Earth's orbit typically refer to objects detected orbiting the Earth but have not yet been identified or cataloged. These objects could be anything from previously untracked satellites, spent rocket stages, debris from satellite collisions, or even natural meteoroids temporarily captured by Earth's gravity.

Loading next visibility...
Identifier
60521, 2024-149BF
Orbit
SSO
Country
Flag of TBDTBD
Related business
Flag of SESwedish Defence Research Agency (SE)
Manufacturer
FOI
Mission
Operational Defense Communications
Bus & Motor
CUBESAT 3U, Unknown motor
Mass
4 kg wet, 4 kg dry
Launch date (UTC)
2024-08-16 (1 year ago)
Launch vehicle
FALCON 9
Launch site
Air Force Western Test Range (AFWTR)
Object type
Unknown
Shape & HBR
Box, 0.1 m
Radar Cross Section
0.035 m², Medium (>0.1 m² and < 1m²)

Expand to show TLE details & history
Last TLE update: 8 hours ago

TLE from 8 hours ago
0 OBJECT BF
1 60521U 24149BF  25287.87719483  .00035872  00000-0  81533-3 0  9993
2 60521  97.4013   9.4379 0005022  85.2061 274.9759 15.42912011 64877
Epoch: 2025-10-14T21:03Z
TLE epoch observation values (Epoch: 2025-10-14T21:03:09.633Z)
Latitude
-0.0001°
Longitude
29.98845°
Altitude
440.346 km
Speed
7.648 km/s
True Right ascension
00h 37m 45s
True Declination
0° 00' 00"
Sunlit
Object was in full shadow at epoch
Visualization orbit readout
Latitude
Unknown
Longitude
Unknown
Altitude
Unknown
Speed
Unknown
Apparent Right ascension
Unknown
Apparent Declination
Unknown
Sunlit
N/A
Visualization observer readout
Local Sidereal Time
23:47:27
Azimuth
Unknown
Elevation
Unknown
Doppler factor
Unknown
Orbital elements
Apogee altitude
437.877 km
Perigee altitude
431.034 km
Semi-major axis
6,812.592 km
Eccentricity
0.0005
Inclination
97.4013°
RAAN
9.4379°
Arg. of periapsis
85.2061°
True anomaly
274.91857°
Mean anomaly
274.9759°
Eccentric anomaly
274.94723°
Mean motion
3.85989 °/min
Orbital period
93.27 mins
BSTAR
0.00081533
Loading maneuver chart data...
Computing Atmospheric mass density...
Loading historical data...
Loading historical data...
Loading historical data...
Loading historical data...
Loading historical data...
Loading historical data...
Loading historical data...

Documentation

Showing up to 5 results
|